Easton, MD

9:37 AM EDT on August 17, 2019 (GMT -0400)
Easton / Newnam

Weather History for KESN - July, 2019

Change the Weather History Date:

Thursday, July 18, 2019

  Actual Average Record
Temperature  
Mean Temperature 86 °F -  
Max Temperature 93 °F 89 °F 99 °F (1953)
Min Temperature 78 °F 66 °F 58 °F (1976)
Cooling Degree Days 20    
Growing Degree Days 36 (Base 50)    
Moisture  
Dew Point 76 °F    
Average Humidity 78    
Maximum Humidity 89    
Minimum Humidity 56    
Precipitation  
Precipitation 0.00 in - - ()
Sea Level Pressure  
Sea Level Pressure 29.92 in    
Wind  
Wind Speed 3 mph (South)    
Max Wind Speed 12 mph    
Max Gust Speed -    
Visibility 10 miles    
Events      
Averages and records for this station are not official NWS values.
T = Trace of Precipitation, MM = Missing Value Source: NWS Daily Summary

Daily Weather History Graph

Daily Weather History Graph

Search for Another Location

Airport or City:

Astronomy

Jul. 18, 2019 Rise Set
Actual Time 5:53 AM EDT 8:27 PM EDT
Civil Twilight 5:22 AM EDT 8:57 PM EDT
Nautical Twilight 4:44 AM EDT 9:36 PM EDT
Astronomical Twilight 4:01 AM EDT 10:18 PM EDT
Moon 9:52 PM EDT (7/18) 7:20 AM EDT (7/18)
Length of Visible Light 15h 35m
Length of Day
14h 33m
Full, 97% of the Moon is Illuminated
Jul 18
Full
Jul 24
Last Quarter
Jul 31
New
Aug 7
First Quarter
Aug 15
Full

Hourly Weather History & Observations

Time (EDT) Temp. Heat Index Dew Point Humidity Pressure Visibility Wind Dir Wind Speed Gust Speed Precip Events Conditions
12:19 AM 79.2 °F - 74.5 °F 86% 29.94 in 10.0 mi Calm Calm - N/A   Clear
12:39 AM 79.9 °F - 74.5 °F 83% 29.95 in 10.0 mi Calm Calm - N/A   Clear
12:59 AM 80.2 °F 84.9 °F 73.9 °F 81% 29.94 in 10.0 mi SSE 4.6 mph - N/A   Clear
1:19 AM 79.7 °F - 73.4 °F 81% 29.95 in 10.0 mi SSE 4.6 mph - N/A   Clear
1:39 AM 79.7 °F - 73.4 °F 81% 29.94 in 10.0 mi SSE 3.5 mph - N/A   Clear
1:59 AM 79.7 °F - 73.9 °F 82% 29.94 in 10.0 mi SE 6.9 mph - N/A   Scattered Clouds
2:19 AM 79.7 °F - 74.3 °F 83% 29.93 in 10.0 mi SSE 6.9 mph - N/A   Scattered Clouds
2:39 AM 79.7 °F - 75.2 °F 86% 29.93 in 10.0 mi SE 4.6 mph - N/A   Scattered Clouds
2:59 AM 79.7 °F - 75.6 °F 87% 29.93 in 10.0 mi SSE 4.6 mph - N/A   Scattered Clouds
3:19 AM 80.1 °F 85.4 °F 75.9 °F 87% 29.93 in 10.0 mi South 5.8 mph - N/A   Clear
3:39 AM 80.2 °F 86.0 °F 76.3 °F 88% 29.92 in 10.0 mi South 4.6 mph - N/A   Clear
3:59 AM 80.6 °F 86.8 °F 76.3 °F 87% 29.91 in 10.0 mi SSE 4.6 mph - N/A   Clear
4:19 AM 80.6 °F 86.8 °F 76.3 °F 87% 29.91 in 10.0 mi SSE 5.8 mph - N/A   Clear
4:39 AM 81.0 °F 87.3 °F 76.1 °F 85% 29.90 in 10.0 mi South 4.6 mph - N/A   Clear
4:59 AM 80.8 °F 86.9 °F 75.7 °F 85% 29.90 in 10.0 mi South 3.5 mph - N/A   Clear
5:19 AM 79.9 °F - 75.4 °F 86% 29.90 in 10.0 mi Calm Calm - N/A   Clear
5:39 AM 79.0 °F - 75.2 °F 88% 29.90 in 10.0 mi Calm Calm - N/A   Clear
5:41 AM 78.8 °F - 75.2 °F 89% 29.90 in 10.0 mi Calm Calm - N/A   Clear
6:00 AM 78.8 °F - 75.2 °F 89% 29.92 in 10.0 mi Calm Calm - N/A   Scattered Clouds
6:46 AM 80.6 °F 86.2 °F 75.2 °F 84% 29.92 in 10.0 mi SW 5.8 mph - N/A   Scattered Clouds
7:50 AM 82.4 °F 89.5 °F 75.2 °F 79% 29.93 in 10.0 mi SSW 4.6 mph - N/A   Clear
8:50 AM 84.2 °F 92.3 °F 75.2 °F 74% 29.92 in 10.0 mi South 9.2 mph - N/A   Clear
9:50 AM 87.8 °F 99.7 °F 77.0 °F 70% 29.93 in 10.0 mi SW 8.1 mph - N/A   Clear
10:50 AM 87.8 °F 99.7 °F 77.0 °F 70% 29.93 in 10.0 mi SW 6.9 mph - N/A   Scattered Clouds
11:50 AM 89.6 °F 99.8 °F 75.2 °F 62% 29.93 in 10.0 mi West 6.9 mph - N/A   Scattered Clouds
12:45 PM 91.4 °F 105.1 °F 77.0 °F 63% 29.92 in 10.0 mi West 6.9 mph - N/A   Scattered Clouds
1:50 PM 91.4 °F 102.5 °F 75.2 °F 59% 29.92 in 10.0 mi SW 4.6 mph - N/A   Partly Cloudy
2:50 PM 91.4 °F 102.5 °F 75.2 °F 59% 29.90 in 10.0 mi SW 11.5 mph - N/A   Scattered Clouds
3:55 PM 91.4 °F 102.5 °F 75.2 °F 59% 29.89 in 10.0 mi SW 8.1 mph - N/A   Scattered Clouds
4:50 PM 93.2 °F 105.0 °F 75.2 °F 56% 29.89 in 10.0 mi SW 6.9 mph - N/A   Scattered Clouds
5:48 PM 91.4 °F 105.1 °F 77.0 °F 63% 29.89 in 10.0 mi SW 5.8 mph - N/A   Scattered Clouds
6:52 PM 91.4 °F 102.5 °F 75.2 °F 59% 29.89 in 10.0 mi Calm Calm - N/A   Scattered Clouds
7:48 PM 87.8 °F 99.7 °F 77.0 °F 70% 29.90 in 10.0 mi North 5.8 mph - N/A   Scattered Clouds
8:49 PM 84.2 °F 94.1 °F 77.0 °F 79% 29.90 in 10.0 mi Calm Calm - N/A   Scattered Clouds
9:49 PM 84.2 °F 94.1 °F 77.0 °F 79% 29.92 in 10.0 mi Calm Calm - N/A   Scattered Clouds
10:19 PM 82.8 °F 91.6 °F 77.2 °F 83% 29.92 in 10.0 mi Calm Calm - N/A   Clear
10:39 PM 82.6 °F 91.4 °F 77.4 °F 84% 29.93 in 10.0 mi Calm Calm - N/A   Clear
10:59 PM 82.0 °F 90.2 °F 77.0 °F 85% 29.93 in 10.0 mi Calm Calm - N/A   Clear
11:19 PM 82.2 °F 90.4 °F 77.0 °F 84% 29.93 in 10.0 mi Calm Calm - N/A   Clear
11:39 PM 81.1 °F 88.2 °F 77.0 °F 87% 29.93 in 10.0 mi Calm Calm - N/A   Clear
11:59 PM 80.8 °F 87.4 °F 77.0 °F 88% 29.92 in 10.0 mi Calm Calm - N/A   Clear